Location: Brantley
(31.5822°N, 86.2569°W)
Time: 18:24:21
(UTC+00:00)

Vanguard 3 - All Passes

Search period start: 16 February 2026 00:00
Search period end: 26 February 2026 00:00
Orbit: 507 x 3205 km, 33.3° (Epoch: 16 February)

Date Brightness Start Highest point End Pass type
(mag) Time Alt. Az. Time Alt. Az. Time Alt. Az.
16 Feb - 02:09:52 10° WNW 02:14:27 88° N 02:18:07 10° ESE visible
16 Feb - 04:21:54 10° W 04:24:49 22° SSW 04:27:58 10° SSE night (unlit)
16 Feb - 18:07:57 10° S 18:15:44 16° SSE 18:21:59 10° ESE daylight
16 Feb - 20:17:29 10° SW 20:29:26 40° SSE 20:36:38 10° E daylight
16 Feb - 22:32:03 10° WSW 22:41:44 80° SSE 22:47:10 10° ENE daylight
17 Feb - 00:47:00 10° W 00:53:08 72° N 00:57:10 10° E visible
17 Feb - 02:59:50 10° W 03:03:49 49° SSW 03:07:22 10° SE visible
17 Feb - 18:54:20 10° SSW 19:06:23 28° SSE 19:14:33 10° E daylight
17 Feb - 21:07:28 10° SW 21:19:35 60° SSE 21:26:20 10° E daylight
17 Feb - 23:23:04 10° W 23:31:31 80° N 23:36:24 10° E daylight
18 Feb - 01:37:25 10° WNW 01:42:43 90° WNW 01:46:31 10° ESE visible
18 Feb - 03:50:09 10° WSW 03:53:01 20° SSW 03:55:49 10° SSE night (unlit)
18 Feb - 17:32:54 10° S 17:42:49 18° SSE 17:50:37 10° ESE daylight
18 Feb - 19:43:09 10° SW 19:56:50 44° SSE 20:05:02 10° E daylight
18 Feb - 21:58:19 10° WSW 22:09:33 83° SSE 22:15:42 10° ENE daylight
19 Feb - 00:14:03 10° W 00:21:17 75° N 00:25:42 10° E visible
19 Feb - 02:27:37 10° W 02:32:04 48° SSW 02:35:38 10° SE visible
19 Feb - 18:19:44 10° SSW 18:33:30 31° SSE 18:42:51 10° E daylight
19 Feb - 20:33:19 10° SW 20:47:05 64° SSE 20:54:45 10° E daylight
19 Feb - 22:49:35 10° W 22:59:28 80° N 23:04:58 10° E daylight
20 Feb - 01:04:42 10° WNW 01:10:56 88° S 01:15:00 10° ESE visible
20 Feb - 03:18:10 10° W 03:21:10 19° SSW 03:23:54 10° SSE visible
20 Feb - 16:58:06 10° S 17:09:41 21° SE 17:18:53 10° ESE daylight
20 Feb - 19:08:43 10° SW 19:24:01 48° SSE 19:33:19 10° E daylight
20 Feb - 21:24:21 10° WSW 21:37:12 85° SSE 21:44:09 10° ENE daylight
20 Feb - 23:40:48 10° W 23:49:19 77° N 23:54:15 10° E daylight
21 Feb - 01:55:07 10° W 02:00:18 49° SSW 02:04:01 10° SE visible
21 Feb - 15:41:56 10° SSE 15:45:35 11° SE 15:49:03 10° SE daylight
21 Feb - 17:45:12 10° SSW 18:00:22 34° SSE 18:10:57 10° E daylight
21 Feb - 19:59:01 10° WSW 20:14:22 67° SSE 20:23:04 10° E daylight
21 Feb - 22:15:50 10° W 22:27:14 81° N 22:33:27 10° E daylight
22 Feb - 00:31:42 10° WNW 00:39:03 86° SSW 00:43:31 10° ESE visible
22 Feb - 02:45:54 10° W 02:49:18 20° SW 02:52:09 10° SSE visible
22 Feb - 16:23:30 10° S 16:36:23 23° SE 16:46:51 10° E daylight
22 Feb - 18:34:16 10° SW 18:50:57 51° SSE 19:01:26 10° E daylight
22 Feb - 20:50:12 10° WSW 21:04:38 86° SSE 21:12:31 10° ENE daylight
22 Feb - 23:07:17 10° W 23:17:14 79° N 23:22:47 10° E daylight
23 Feb - 01:22:21 10° W 01:28:26 50° SSW 01:32:28 10° SE visible
23 Feb - 15:06:22 10° SSE 15:12:13 12° SE 15:17:46 10° ESE daylight
23 Feb - 17:10:45 10° SSW 17:27:02 37° SSE 17:38:52 10° E daylight
23 Feb - 19:24:37 10° WSW 19:41:27 70° SSE 19:51:16 10° ENE daylight
23 Feb - 21:41:50 10° W 21:54:51 82° N 22:01:53 10° E daylight
23 Feb - 23:58:24 10° WNW 00:07:04 85° SSW 00:12:02 10° ESE visible
24 Feb - 02:13:19 10° W 02:17:23 22° SW 02:20:33 10° SSE visible
24 Feb - 15:49:08 10° S 16:02:53 24° SE 16:14:31 10° E daylight
24 Feb - 17:59:52 10° SW 18:17:39 54° SSE 18:29:24 10° E daylight
24 Feb - 20:15:53 10° WSW 20:31:53 87° SSE 20:40:48 10° ENE daylight
24 Feb - 22:33:29 10° W 22:45:00 81° N 22:51:16 10° E daylight
25 Feb - 00:49:17 10° W 00:56:30 52° SSW 01:00:56 10° SE visible
25 Feb - 14:31:44 10° SSE 14:38:45 13° SE 14:45:31 10° ESE daylight
25 Feb - 16:36:27 10° SSW 16:53:28 39° SSE 17:06:33 10° E daylight
25 Feb - 18:50:13 10° WSW 19:08:16 72° SSE 19:19:18 10° ENE daylight
25 Feb - 21:07:39 10° W 21:22:16 82° N 21:30:15 10° E daylight
25 Feb - 23:24:51 10° WNW 23:34:56 85° SSW 23:40:31 10° ESE daylight
